Change the Weather History Date:

Saturday, December 7, 2013

  Actual Average Record
Temperature  
Mean Temperature -19 °F 20 °F  
Max Temperature -12 °F 30 °F 55 °F (1923)
Min Temperature -26 °F 10 °F -27 °F (1936)
Degree Days  
Heating Degree Days 84 45  
Month to date heating degree days 418 309  
Since 1 July heating degree days 2359 2386  
Cooling Degree Days 0 0  
Month to date cooling degree days 0 0  
Year to date cooling degree days 386 419  
Moisture  
Dew Point -26 °F    
Average Humidity 74    
Maximum Humidity 82    
Minimum Humidity 66    
Precipitation  
Precipitation 0.00 in 0.01 in 0.20 in (1969)
Month to date precipitation 0.17 0.06  
Year to date precipitation 21.17 15.59  
Sea Level Pressure  
Sea Level Pressure 30.58 in    
Wind  
Wind Speed 8 mph (WSW)    
Max Wind Speed 17 mph    
Max Gust Speed 21 mph    
Visibility 10 miles    
Events      
T = Trace of Precipitation, MM = Missing Value Source: NWS Daily Summary

Daily Weather History Graph

Daily Weather History Graph

Search for Another Location

Airport or City:

Trip Planner

Search our weather history database for the weather conditions in past years. The results will help you decide how hot, cold, wet, or windy it might be!

Date:

Astronomy

Dec. 07, 2013 Rise Set
Actual Time 7:22 AM MST 4:03 PM MST
Civil Twilight 6:47 AM MST 4:37 PM MST
Nautical Twilight 6:09 AM MST 5:16 PM MST
Astronomical Twilight 5:32 AM MST 5:53 PM MST
Moon 10:55 AM MST (12/7) 10:02 PM MST (12/7)
Length of Visible Light 9h 50m
Length of Day
8h 40m
Waxing Crescent, 30% of the Moon is Illuminated
Dec 7
Waxing Crescent
Dec 9
First Quarter
Dec 17
Full
Dec 25
Last Quarter
Jan 1
New

Hourly Weather History & Observations

Time (MST) Temp. Windchill Dew Point Humidity Pressure Visibility Wind Dir Wind Speed Gust Speed Precip Events Conditions
12:56 AM -20.0 °F -45.8 °F -26.0 °F 74% 30.70 in 10.0 mi West 16.1 mph - N/A   Clear
1:56 AM -22.0 °F -45.7 °F -27.9 °F 74% 30.71 in 10.0 mi West 12.7 mph - N/A   Clear
2:56 AM -23.1 °F -46.0 °F -29.0 °F 74% 30.70 in 10.0 mi West 11.5 mph - N/A   Clear
3:56 AM -23.1 °F -46.0 °F -29.0 °F 74% 30.69 in 10.0 mi WNW 11.5 mph - N/A   Clear
4:56 AM -24.0 °F -50.1 °F -29.9 °F 74% 30.69 in 10.0 mi West 15.0 mph - N/A   Clear
5:56 AM -25.1 °F -50.5 °F -29.9 °F 78% 30.67 in 10.0 mi West 13.8 mph - N/A   Clear
6:56 AM -24.0 °F -40.0 °F -29.9 °F 74% 30.68 in 10.0 mi WNW 5.8 mph - N/A   Clear
7:56 AM -25.1 °F -47.4 °F -29.9 °F 78% 30.70 in 10.0 mi SW 10.4 mph - N/A   Clear
8:56 AM -23.1 °F -38.9 °F -27.9 °F 78% 30.70 in 10.0 mi SW 5.8 mph - N/A   Clear
9:56 AM -18.9 °F -38.6 °F -26.0 °F 70% 30.42 in 10.0 mi West 9.2 mph - N/A   Clear
10:56 AM -15.0 °F -36.8 °F -22.0 °F 71% 30.66 in 10.0 mi WNW 12.7 mph - N/A   Clear
11:56 AM -13.0 °F -30.0 °F -20.0 °F 71% 30.63 in 10.0 mi WNW 8.1 mph - N/A   Clear
12:56 PM -11.9 °F -29.9 °F -18.9 °F 71% 30.60 in 10.0 mi West 9.2 mph - N/A   Clear
1:56 PM -11.9 °F -29.9 °F -18.9 °F 71% 30.57 in 10.0 mi WSW 9.2 mph - N/A   Clear
2:56 PM -11.9 °F -25.7 °F -18.9 °F 71% 30.54 in 10.0 mi WSW 5.8 mph - N/A   Clear
3:56 PM -15.0 °F -27.4 °F -22.0 °F 71% 30.54 in 7.0 mi SW 4.6 mph - N/A   Clear
4:56 PM -20.0 °F -30.7 °F -25.1 °F 78% 30.53 in 10.0 mi West 3.5 mph - N/A   Clear
5:56 PM -20.0 °F -30.7 °F -25.1 °F 78% 30.52 in 10.0 mi West 3.5 mph - N/A   Clear
6:56 PM -23.1 °F -42.3 °F -29.0 °F 74% 30.52 in 10.0 mi South 8.1 mph - N/A   Clear
7:56 PM -20.9 °F -34.3 °F -27.9 °F 70% 30.51 in 10.0 mi SSW 4.6 mph - N/A   Clear
8:56 PM -20.0 °F - -27.0 °F 70% 30.47 in 10.0 mi Calm Calm - N/A   Clear
9:56 PM -22.0 °F -33.0 °F -29.0 °F 70% 30.45 in 10.0 mi SSW 3.5 mph - N/A   Clear
10:56 PM -20.9 °F -38.1 °F -26.0 °F 77% 30.41 in 10.0 mi SSW 6.9 mph - N/A   Overcast
11:56 PM -15.0 °F -33.7 °F -20.9 °F 75% 30.35 in 10.0 mi South 9.2 mph - N/A   Overcast